FW2442 Weather Reports


time (UTC)temp
F
wind
direction
speed
knots
gust
knots
rain 1hr
in
rain 24hr
in
rain mn
in
humidity
%
barometer
mb
20260831054518 71 85 11.3 26.1 0.00 0.00 0.00 63 1017.0
20260831053520 71 108 10.4 15.6 0.00 0.00 0.00 64 1017.0
20260831052518 71 119 3.5 8.7 0.00 0.00 0.00 66 1017.0
20260831051518 70 106 5.2 10.4 0.00 0.00 0.00 67 1017.0
20260831050521 69 113 6.1 9.6 0.00 0.00 0.00 66 1017.0
20260831045518 68 19 1.7 6.1 0.00 0.00 0.00 67 1017.0
20260831044522 68 188 4.3 7.8 0.00 0.00 0.00 65 1017.0
20260831043540 69 146 5.2 7.8 0.00 0.00 0.00 64 1016.9
20260831042521 68 135 6.1 9.6 0.00 0.00 0.00 63 1016.8
20260831041520 68 110 2.6 7.0 0.00 0.00 0.00 64 1016.8
20260831040518 68 190 4.3 8.7 0.00 0.00 0.00 64 1016.8
20260831035517 67 118 7.0 9.6 0.00 0.00 0.00 63 1016.8
20260831034521 68 125 6.1 9.6 0.00 0.00 0.00 62 1016.8
20260831033521 68 116 11.3 15.6 0.00 0.00 0.00 62 1016.8
20260831032521 68 106 10.4 14.8 0.00 0.00 0.00 62 1016.8
20260831030520 68 119 12.2 16.5 0.00 0.00 0.00 62 1016.7
20260831025516 68 95 7.8 11.3 0.00 0.00 0.00 62 1016.6
20260831024520 68 112 7.0 11.3 0.00 0.00 0.00 63 1016.7
20260831023518 68 113 5.2 9.6 0.00 0.00 0.00 63 1016.7
20260831022522 68 126 8.7 12.2 0.00 0.00 0.00 62 1016.6
20260831021522 68 126 7.8 15.6 0.00 0.00 0.00 63 1016.8
20260831020521 68 80 6.1 10.4 0.00 0.00 0.00 64 1016.8
20260831015517 68 119 4.3 7.8 0.00 0.00 0.00 63 1016.8
20260831014541 68 155 2.6 10.4 0.00 0.00 0.00 63 1016.9
20260831013517 69 136 5.2 9.6 0.00 0.01 0.00 63 1016.9
20260831012521 69 128 10.4 17.4 0.00 0.01 0.00 62 1017.0
20260831011517 69 54 7.8 12.2 0.00 0.01 0.00 63 1017.0
20260831010521 69 118 7.0 12.2 0.00 0.01 0.00 63 1017.0
20260831005537 69 108 7.0 12.2 0.00 0.01 0.00 63 1016.9
20260831004521 70 128 7.8 10.4 0.00 0.01 0.00 62 1017.0
20260831003517 70 131 8.7 14.8 0.00 0.01 0.00 63 1017.0
20260831002601 69 123 9.6 14.8 0.00 0.01 0.00 64 1017.1
20260831001517 69 117 7.8 11.3 0.00 0.01 0.00 64 1017.1
20260831000521 70 117 8.7 11.3 0.00 0.01 0.00 63 1017.1
20260830235519 70 124 9.6 13.9 0.00 0.01 0.00 64 1017.0
20260830234537 70 113 8.7 13.9 0.00 0.01 0.00 64 1017.1
20260830233537 70 108 8.7 11.3 0.00 0.01 0.00 64 1017.1
20260830232541 70 116 10.4 13.9 0.00 0.01 0.00 64 1017.1
20260830231522 69 109 9.6 16.5 0.00 0.01 0.00 65 1017.1
20260830230522 70 110 12.2 30.4 0.00 0.01 0.00 65 1017.1
20260830225542 70 112 8.7 13.9 0.00 0.01 0.00 66 1017.1
20260830224520 70 108 12.2 14.8 0.00 0.01 0.00 66 1017.0
20260830223520 70 110 11.3 14.8 0.00 0.01 0.00 66 1017.1
20260830222518 70 118 6.1 9.6 0.00 0.01 0.00 67 1017.2
20260830221556 70 108 9.6 16.5 0.00 0.01 0.00 67 1017.2
20260830220518 70 103 8.7 12.2 0.00 0.01 0.00 66 1017.1
20260830215516 70 106 11.3 16.5 0.00 0.01 0.00 66 1017.1
20260830214540 70 106 7.0 10.4 0.00 0.01 0.00 66 1017.1
20260830213536 70 127 2.6 7.8 0.00 0.01 0.00 65 1017.1
20260830212522 71 129 5.2 13.0 0.00 0.01 0.00 64 1017.0
20260830211522 72 108 4.3 7.8 0.00 0.01 0.00 64 1016.9
20260830210520 72 112 8.7 10.4 0.00 0.01 0.00 62 1016.8
20260830205522 72 109 7.8 11.3 0.00 0.01 0.01 62 1016.7
20260830204521 73 104 10.4 14.8 0.00 0.01 0.01 61 1016.8
20260830203521 73 106 10.4 15.6 0.00 0.01 0.01 61 1016.8
20260830202521 73 108 7.8 9.6 0.00 0.01 0.01 61 1016.7
20260830201517 73 96 7.8 10.4 0.00 0.01 0.01 61 1016.7
20260830200521 72 104 6.1 7.8 0.00 0.01 0.01 62 1016.6
20260830195522 72 116 3.5 4.3 0.00 0.01 0.01 62 1016.5
20260830194519 73 110 0.0 3.5 0.00 0.01 0.01 62 1016.6
20260830193517 73 0.0 0.0 0.00 0.01 0.01 61 1016.5
20260830192522 73 121 5.2 7.8 0.00 0.01 0.01 61 1016.5
20260830191521 74 126 3.5 6.1 0.00 0.01 0.01 61 1016.5
20260830190520 74 119 5.2 7.8 0.00 0.01 0.01 60 1016.5
20260830185520 75 112 7.8 11.3 0.00 0.01 0.01 59 1016.5
20260830184522 75 112 5.2 7.8 0.00 0.01 0.01 58 1016.5
20260830183517 76 128 6.1 12.2 0.00 0.01 0.01 57 1016.4
20260830182519 76 132 7.0 10.4 0.00 0.01 0.01 57 1016.3
20260830181520 76 121 8.7 13.0 0.00 0.01 0.01 57 1016.3
20260830180601 76 122 7.0 10.4 0.00 0.01 0.01 58 1016.2
20260830175520 76 121 6.1 8.7 0.00 0.01 0.01 58 1016.0
20260830174520 77 126 7.0 10.4 0.00 0.01 0.01 58 1016.1
20260830173521 77 120 6.1 7.8 0.00 0.01 0.01 59 1016.0
20260830172540 77 121 7.8 12.2 0.00 0.01 0.01 58 1015.8
20260830171521 78 125 7.0 9.6 0.00 0.01 0.01 58 1015.8
20260830170520 79 120 8.7 13.0 0.00 0.01 0.01 57 1015.7
20260830165540 79 110 9.6 14.8 0.00 0.01 0.01 56 1015.5
20260830164520 80 109 9.6 13.0 0.00 0.01 0.01 55 1015.5
20260830163520 80 103 8.7 13.0 0.00 0.01 0.01 55 1015.5
20260830162541 80 109 6.1 8.7 0.00 0.01 0.01 55 1015.4
20260830161519 81 117 5.2 10.4 0.00 0.01 0.01 54 1015.4
20260830160521 81 118 6.1 9.6 0.00 0.01 0.01 53 1015.4
20260830155520 81 110 5.2 7.8 0.00 0.01 0.01 53 1015.5
20260830154521 81 121 7.0 12.2 0.00 0.01 0.01 52 1015.5
20260830153520 82 128 8.7 13.0 0.00 0.01 0.01 52 1015.5
20260830152519 83 123 7.8 18.2 0.00 0.01 0.01 51 1015.5
20260830151540 83 123 6.1 10.4 0.00 0.01 0.01 49 1015.5
20260830150520 84 115 13.0 20.0 0.00 0.01 0.01 48 1015.5
20260830145520 84 122 11.3 20.0 0.00 0.01 0.01 48 1015.5
20260830144520 84 132 11.3 17.4 0.00 0.01 0.01 47 1015.4
20260830143520 85 125 12.2 20.0 0.00 0.01 0.01 46 1015.4
20260830142520 85 119 10.4 16.5 0.00 0.01 0.01 47 1015.4
20260830141521 86 137 11.3 17.4 0.00 0.01 0.01 46 1015.3
20260830140521 86 113 12.2 26.1 0.00 0.01 0.01 45 1015.4
20260830135520 86 127 8.7 19.1 0.00 0.01 0.01 46 1015.5
20260830134540 85 108 12.2 20.0 0.00 0.01 0.01 46 1015.6
20260830133519 85 127 10.4 20.0 0.00 0.01 0.01 45 1015.6
20260830132535 86 134 9.6 18.2 0.00 0.01 0.01 44 1015.6
20260830131518 86 152 8.7 15.6 0.00 0.01 0.01 43 1015.6
20260830130519 86 153 14.8 26.1 0.00 0.01 0.01 43 1015.7
20260830125519 86 129 15.6 24.3 0.00 0.01 0.01 43 1015.8
20260830124539 86 134 11.3 15.6 0.00 0.01 0.01 45 1015.8
20260830123516 86 124 18.2 29.5 0.00 0.01 0.01 44 1015.9
20260830122520 86 133 12.2 21.7 0.00 0.01 0.01 44 1016.1
20260830121540 85 149 11.3 16.5 0.00 0.01 0.01 47 1016.2
20260830120520 84 126 8.7 14.8 0.00 0.01 0.01 48 1016.2
20260830115520 84 133 8.7 17.4 0.00 0.01 0.01 49 1016.4
20260830114520 84 111 14.8 22.6 0.00 0.01 0.01 49 1016.5
20260830113520 83 152 8.7 14.8 0.00 0.01 0.01 52 1016.6
20260830112516 83 128 10.4 18.2 0.00 0.01 0.01 52 1016.7
20260830111600 84 122 15.6 22.6 0.00 0.01 0.01 51 1016.8
20260830110517 84 113 14.8 23.5 0.00 0.01 0.01 52 1016.9
20260830105541 84 156 12.2 26.1 0.00 0.01 0.01 53 1016.9
20260830104516 83 129 8.7 15.6 0.00 0.01 0.01 53 1017.1
20260830103539 83 112 11.3 19.1 0.00 0.01 0.01 53 1017.1
20260830102520 83 128 15.6 26.1 0.00 0.01 0.01 53 1017.2
20260830101538 83 111 14.8 25.2 0.00 0.01 0.01 53 1017.2
20260830100519 82 86 9.6 16.5 0.00 0.01 0.01 52 1017.2
20260830095537 82 185 13.9 24.3 0.00 0.01 0.01 52 1017.4
20260830094519 82 168 8.7 16.5 0.00 0.01 0.01 55 1017.4
20260830093519 81 196 8.7 13.0 0.00 0.01 0.01 55 1017.5
20260830092539 81 81 7.0 13.0 0.00 0.01 0.01 55 1017.5
20260830091539 81 128 7.0 16.5 0.00 0.01 0.01 57 1017.6
20260830090517 80 148 8.7 11.3 0.00 0.01 0.01 56 1017.7
20260830085518 80 158 8.7 14.8 0.00 0.01 0.01 57 1017.7
20260830084538 81 113 6.1 9.6 0.00 0.01 0.01 57 1017.7
20260830083600 79 83 7.0 18.2 0.00 0.01 0.01 60 1017.8
20260830082520 79 49 7.0 10.4 0.00 0.01 0.01 63 1017.8
20260830081519 78 136 5.2 12.2 0.00 0.01 0.01 64 1017.9
20260830080517 77 104 7.8 18.2 0.00 0.01 0.01 65 1018.0
20260830075520 76 193 6.1 9.6 0.00 0.01 0.01 67 1017.9
20260830074516 76 203 5.2 9.6 0.00 0.01 0.01 67 1017.9
20260830073519 75 96 6.1 15.6 0.00 0.01 0.01 68 1017.9
20260830072520 74 180 7.0 11.3 0.00 0.01 0.01 71 1017.9
20260830071520 74 197 7.8 13.9 0.00 0.01 0.01 70 1017.7
20260830070517 73 237 4.3 9.6 0.00 0.01 0.01 72 1017.8
20260830065519 71 73 5.2 11.3 0.00 0.01 0.01 76 1017.8
20260830064517 69 6 2.6 6.1 0.00 0.01 0.01 79 1017.7
20260830063519 68 357 5.2 9.6 0.00 0.01 0.01 81 1017.6
20260830062537 68 274 5.2 10.4 0.00 0.01 0.01 83 1017.6
20260830061518 67 329 6.1 11.3 0.00 0.01 0.01 83 1017.6
20260830060517 67 325 7.0 10.4 0.00 0.01 0.01 85 1017.6
20260830055519 67 349 6.1 9.6 0.00 0.01 0.01 85 1017.5